EN

Hourly Weather Klenivka

Today, 12 May, Wednesday

Time Temperature Precipitation Wind Pressure Humidity
00:00 +6°C° 0.1 mm 4 mps 745 mmHg 93%
01:00 +6°C° 0.1 mm 4 mps 745 mmHg 93%
02:00 +6°C° 0.1 mm 5 mps 746 mmHg 94%
03:00 +6°C° 0.1 mm 5 mps 746 mmHg 94%
04:00 +6°C° 0.2 mm 5 mps 746 mmHg 94%
05:00 +6°C° 0.2 mm 5 mps 746 mmHg 94%
06:00 +5°C° 0.2 mm 6 mps 746 mmHg 94%
07:00 +7°C° 0.3 mm 6 mps 747 mmHg 91%
08:00 +7°C° 0.3 mm 6 mps 747 mmHg 89%
09:00 +8°C° 0.3 mm 6 mps 747 mmHg 87%
10:00 +9°C° 0.3 mm 6 mps 747 mmHg 83%
11:00 +9°C° 0.3 mm 7 mps 747 mmHg 80%
12:00 +10°C° 0.3 mm 7 mps 747 mmHg 76%
13:00 +10°C° 0.4 mm 7 mps 747 mmHg 77%
14:00 +11°C° 0.4 mm 7 mps 747 mmHg 77%
15:00 +11°C° 0.4 mm 8 mps 747 mmHg 78%
16:00 +10°C° 0.4 mm 6 mps 747 mmHg 82%
17:00 +10°C° 0.4 mm 5 mps 747 mmHg 86%
18:00 +10°C° 0.4 mm 4 mps 747 mmHg 90%
19:00 +10°C° 0.3 mm 3 mps 747 mmHg 92%
20:00 +10°C° 0.3 mm 2 mps 747 mmHg 94%
21:00 +10°C° 0.3 mm 2 mps 747 mmHg 96%
22:00 +10°C° 0 mm 2 mps 747 mmHg 96%
23:00 +11°C° 0 mm 1 mps 746 mmHg 96%

Tomorrow, 13 May, Thursday

Time Temperature Precipitation Wind Pressure Humidity
00:00 +11°C° 0 mm 1 mps 746 mmHg 95%
01:00 +11°C° 0 mm 1 mps 746 mmHg 95%
02:00 +11°C° 0 mm 1 mps 746 mmHg 94%
03:00 +11°C° 0 mm 1 mps 746 mmHg 94%
04:00 +11°C° 0 mm 1 mps 746 mmHg 94%
05:00 +11°C° 0 mm 1 mps 746 mmHg 93%
06:00 +10°C° 0 mm 2 mps 746 mmHg 93%
07:00 +13°C° 0 mm 2 mps 746 mmHg 86%
08:00 +15°C° 0 mm 2 mps 746 mmHg 79%
09:00 +17°C° 0 mm 3 mps 746 mmHg 72%
10:00 +19°C° 0 mm 3 mps 746 mmHg 67%
11:00 +20°C° 0 mm 3 mps 746 mmHg 61%
12:00 +22°C° 0 mm 3 mps 746 mmHg 56%
13:00 +22°C° 0 mm 3 mps 746 mmHg 53%
14:00 +24°C° 0 mm 3 mps 746 mmHg 51%
15:00 +24°C° 0 mm 3 mps 746 mmHg 49%
16:00 +24°C° 0 mm 3 mps 746 mmHg 54%
17:00 +22°C° 0 mm 3 mps 746 mmHg 58%
18:00 +22°C° 0 mm 3 mps 746 mmHg 63%
19:00 +20°C° 0 mm 3 mps 746 mmHg 69%
20:00 +19°C° 0 mm 3 mps 746 mmHg 75%
21:00 +18°C° 0 mm 3 mps 746 mmHg 81%
22:00 +17°C° 0 mm 3 mps 746 mmHg 84%
23:00 +17°C° 0 mm 3 mps 745 mmHg 87%

Day after tomorrow, 14 May, Friday

Time Temperature Precipitation Wind Pressure Humidity
00:00 +16°C° 0 mm 3 mps 745 mmHg 90%
01:00 +16°C° 0 mm 3 mps 745 mmHg 91%
02:00 +16°C° 0 mm 3 mps 745 mmHg 92%
03:00 +14°C° 0 mm 3 mps 745 mmHg 93%
04:00 +14°C° 0 mm 3 mps 745 mmHg 91%
05:00 +14°C° 0 mm 3 mps 745 mmHg 90%
06:00 +16°C° 0 mm 3 mps 745 mmHg 89%
07:00 +18°C° 0 mm 4 mps 745 mmHg 80%
08:00 +20°C° 0 mm 4 mps 745 mmHg 71%
09:00 +22°C° 0 mm 5 mps 745 mmHg 62%
10:00 +23°C° 0 mm 5 mps 745 mmHg 59%
11:00 +25°C° 0 mm 5 mps 745 mmHg 56%
12:00 +26°C° 0 mm 5 mps 745 mmHg 53%
13:00 +27°C° 0 mm 5 mps 745 mmHg 51%
14:00 +28°C° 0 mm 5 mps 745 mmHg 49%
15:00 +29°C° 0 mm 5 mps 744 mmHg 47%
16:00 +28°C° 0 mm 4 mps 744 mmHg 51%
17:00 +28°C° 0 mm 4 mps 744 mmHg 55%
18:00 +28°C° 0 mm 3 mps 744 mmHg 59%
19:00 +26°C° 0 mm 3 mps 744 mmHg 66%
20:00 +24°C° 0 mm 2 mps 744 mmHg 74%
21:00 +21°C° 0 mm 2 mps 744 mmHg 82%
22:00 +20°C° 0.2 mm 2 mps 744 mmHg 83%
23:00 +20°C° 0.2 mm 2 mps 744 mmHg 85%

15 May, Saturday

Time Temperature Precipitation Wind Pressure Humidity
00:00 +20°C° 0.2 mm 1 mps 744 mmHg 86%
01:00 +19°C° 0.2 mm 1 mps 744 mmHg 85%
02:00 +19°C° 0.2 mm 1 mps 744 mmHg 84%
03:00 +18°C° 0.2 mm 1 mps 744 mmHg 82%
04:00 +18°C° 0.1 mm 1 mps 744 mmHg 82%
05:00 +17°C° 0.1 mm 2 mps 745 mmHg 82%
06:00 +17°C° 0.1 mm 2 mps 745 mmHg 82%
07:00 +19°C° 0 mm 2 mps 745 mmHg 74%
08:00 +21°C° 0 mm 1 mps 745 mmHg 66%
09:00 +23°C° 0 mm 1 mps 745 mmHg 58%
10:00 +25°C° 0 mm 1 mps 745 mmHg 53%
11:00 +26°C° 0 mm 2 mps 746 mmHg 48%
12:00 +27°C° 0 mm 2 mps 746 mmHg 43%
13:00 +28°C° 0 mm 2 mps 746 mmHg 41%
14:00 +28°C° 0 mm 3 mps 746 mmHg 40%
15:00 +28°C° 0 mm 3 mps 746 mmHg 39%
16:00 +28°C° 0 mm 3 mps 746 mmHg 44%
17:00 +27°C° 0 mm 3 mps 745 mmHg 49%
18:00 +26°C° 0 mm 3 mps 745 mmHg 54%
19:00 +24°C° 0 mm 3 mps 746 mmHg 59%
20:00 +21°C° 0 mm 2 mps 746 mmHg 64%
21:00 +19°C° 0 mm 2 mps 746 mmHg 69%
22:00 +19°C° 0 mm 2 mps 746 mmHg 70%
23:00 +18°C° 0 mm 2 mps 745 mmHg 71%

16 May, Sunday

Time Temperature Precipitation Wind Pressure Humidity
00:00 +19°C° 0 mm 1 mps 745 mmHg 72%
01:00 +17°C° 0 mm 2 mps 745 mmHg 73%
02:00 +17°C° 0 mm 2 mps 745 mmHg 74%
03:00 +17°C° 0 mm 2 mps 745 mmHg 76%
04:00 +17°C° 0 mm 2 mps 745 mmHg 76%
05:00 +17°C° 0 mm 2 mps 745 mmHg 77%
06:00 +17°C° 0 mm 2 mps 745 mmHg 78%
07:00 +19°C° 0 mm 3 mps 745 mmHg 72%
08:00 +22°C° 0 mm 3 mps 745 mmHg 66%
09:00 +25°C° 0 mm 3 mps 745 mmHg 60%
10:00 +26°C° 0 mm 3 mps 744 mmHg 55%
11:00 +28°C° 0 mm 3 mps 744 mmHg 51%
12:00 +29°C° 0 mm 3 mps 744 mmHg 47%
13:00 +29°C° 0 mm 4 mps 744 mmHg 46%
14:00 +30°C° 0 mm 5 mps 743 mmHg 45%
15:00 +30°C° 0 mm 5 mps 743 mmHg 45%
16:00 +29°C° 0 mm 5 mps 743 mmHg 49%
17:00 +28°C° 0 mm 5 mps 743 mmHg 52%
18:00 +27°C° 0 mm 6 mps 742 mmHg 56%
19:00 +25°C° 0 mm 5 mps 742 mmHg 60%
20:00 +22°C° 0 mm 4 mps 742 mmHg 65%
21:00 +21°C° 0 mm 3 mps 742 mmHg 69%
22:00 +20°C° 0 mm 3 mps 742 mmHg 68%
23:00 +20°C° 0 mm 4 mps 742 mmHg 67%

17 May, Monday

Time Temperature Precipitation Wind Pressure Humidity
00:00 +19°C° 0 mm 4 mps 742 mmHg 65%
01:00 +19°C° 0 mm 4 mps 742 mmHg 64%
02:00 +19°C° 0 mm 4 mps 742 mmHg 64%
03:00 +17°C° 0 mm 5 mps 742 mmHg 63%
04:00 +17°C° 0 mm 5 mps 742 mmHg 60%
05:00 +17°C° 0 mm 5 mps 742 mmHg 56%
06:00 +17°C° 0 mm 6 mps 741 mmHg 53%
07:00 +19°C° 0 mm 6 mps 742 mmHg 50%
08:00 +21°C° 0 mm 7 mps 742 mmHg 48%
09:00 +23°C° 0 mm 7 mps 742 mmHg 45%
10:00 +24°C° 0 mm 7 mps 742 mmHg 43%
11:00 +26°C° 0 mm 8 mps 742 mmHg 41%
12:00 +27°C° 0 mm 8 mps 741 mmHg 39%
13:00 +27°C° 0 mm 8 mps 741 mmHg 40%
14:00 +28°C° 0 mm 8 mps 741 mmHg 41%
15:00 +28°C° 0 mm 7 mps 741 mmHg 43%
16:00 +28°C° 0 mm 6 mps 741 mmHg 47%
17:00 +27°C° 0 mm 5 mps 741 mmHg 52%
18:00 +27°C° 0 mm 4 mps 741 mmHg 57%
19:00 +25°C° 0 mm 4 mps 741 mmHg 61%
20:00 +22°C° 0 mm 3 mps 741 mmHg 66%
21:00 +21°C° 0 mm 3 mps 741 mmHg 71%
22:00 +20°C° 0 mm 3 mps 741 mmHg 69%
23:00 +20°C° 0 mm 3 mps 741 mmHg 68%
Show more

We Need Your Consent

Meteoprog and our Service Providers may store and access personal data such as cookies, device identifiers or other similar technologies on your device and process such data to personalise content and ads, as well as provide social media features and to analyse the traffic.

  • Store and/or access information on your device

    Cookies, device identifiers or other information can be stored or accessed on your device for the purposes indicated above.

  • Personalised ads and content, ad and content measurement, audience insights, and products development

    Ads and content can be personalised based on a profile. More data can be added to better personalise ads and content. Ad and content performance can be measured. Insights about the audience who saw the ads and content can be derived. Such data can be used to develop or improve user’s experience, systems and software.

By clicking ‘I Agree’ you will allow the use of indicated cookies, device identifiers, web beacons or other similar technologies. Your settings can be changed in the browser on your device.

For certain purposes, legitimate interests may be relied on, rather than consent. You can read more about this in our Privacy and Cookie Policy.